Fresno, CA

8:43 AM PST on November 12, 2019 (GMT -0800)
Fresno Yosemite International

Weather History for KFAT - September, 2019

Change the Weather History Date:

Saturday, September 28, 2019

  Actual Average Record
Temperature  
Mean Temperature 68 °F 73 °F  
Max Temperature 77 °F 87 °F 104 °F (1887)
Min Temperature 58 °F 59 °F 43 °F (1971)
Degree Days  
Heating Degree Days 0    
Month to date heating degree days 0  
Since 1 July heating degree days 0  
Cooling Degree Days 3    
Month to date cooling degree days 379  
Year to date cooling degree days 2320  
Growing Degree Days 18 (Base 50)    
Moisture  
Dew Point 44 °F    
Average Humidity 49    
Maximum Humidity 73    
Minimum Humidity 25    
Precipitation  
Precipitation 0.00 in 0.01 in 0.18 in (1994)
Month to date precipitation 0.00 0.15  
Year to date precipitation 9.52 8.01  
Snow  
Snow 0.00 in - - ()
Month to date snowfall 0.0  
Since 1 July snowfall 0.0  
Since 1 September snowfall 0.0  
Snow Depth 0.00 in    
Sea Level Pressure  
Sea Level Pressure 29.74 in    
Wind  
Wind Speed 11 mph (NW)    
Max Wind Speed 24 mph    
Max Gust Speed 31 mph    
Visibility 10 miles    
Events      
T = Trace of Precipitation, MM = Missing Value Source: NWS Daily Summary

Daily Weather History Graph

Daily Weather History Graph

Search for Another Location

Airport or City:

Astronomy

Sep. 28, 2019 Rise Set
Actual Time 6:51 AM PDT 6:46 PM PDT
Civil Twilight 6:25 AM PDT 7:12 PM PDT
Nautical Twilight 5:55 AM PDT 7:42 PM PDT
Astronomical Twilight 5:25 AM PDT 8:12 PM PDT
Moon 6:36 AM PDT (9/28) 7:14 PM PDT (9/28)
Length of Visible Light 12h 46m
Length of Day
11h 55m
New Moon, 0% of the Moon is Illuminated
Sep 28
New Moon
Oct 5
First Quarter
Oct 13
Full
Oct 21
Last Quarter
Oct 27
New

Hourly Weather History & Observations

Time (PDT) Temp. Dew Point Humidity Pressure Visibility Wind Dir Wind Speed Gust Speed Precip Events Conditions
12:53 AM 64.9 °F 55.9 °F 73% 29.74 in 10.0 mi NNW 10.4 mph - N/A   Mostly Cloudy
1:53 AM 64.0 °F 55.0 °F 73% 29.74 in 10.0 mi NW 11.5 mph - N/A   Mostly Cloudy
2:53 AM 63.0 °F 52.0 °F 67% 29.73 in 10.0 mi NW 11.5 mph - N/A   Mostly Cloudy
3:53 AM 62.1 °F 51.1 °F 67% 29.72 in 10.0 mi NNW 11.5 mph - N/A   Scattered Clouds
4:53 AM 61.0 °F 50.0 °F 67% 29.73 in 10.0 mi NW 11.5 mph - N/A   Mostly Cloudy
5:53 AM 62.1 °F 50.0 °F 65% 29.74 in 10.0 mi NNW 8.1 mph - N/A   Overcast
6:53 AM 60.1 °F 50.0 °F 69% 29.76 in 10.0 mi North 11.5 mph - N/A   Overcast
7:53 AM 60.1 °F 48.9 °F 67% 29.78 in 10.0 mi North 8.1 mph - N/A   Mostly Cloudy
8:53 AM 62.1 °F 48.9 °F 62% 29.78 in 10.0 mi North 6.9 mph - N/A   Scattered Clouds
9:53 AM 64.9 °F 46.9 °F 52% 29.78 in 10.0 mi NNW 6.9 mph - N/A   Scattered Clouds
10:53 AM 68.0 °F 44.1 °F 42% 29.79 in 10.0 mi NW 6.9 mph - N/A   Partly Cloudy
11:53 AM 70.0 °F 42.1 °F 36% 29.77 in 10.0 mi Calm Calm - N/A   Partly Cloudy
12:53 PM 73.0 °F 39.0 °F 29% 29.75 in 10.0 mi East 6.9 mph - N/A   Partly Cloudy
1:53 PM 73.9 °F 37.0 °F 26% 29.73 in 10.0 mi Calm Calm - N/A   Partly Cloudy
2:53 PM 75.9 °F 37.0 °F 24% 29.70 in 10.0 mi Calm Calm - N/A   Partly Cloudy
3:53 PM 75.9 °F 37.0 °F 24% 29.68 in 10.0 mi West 9.2 mph - N/A   Partly Cloudy
4:53 PM 75.9 °F 37.0 °F 24% 29.68 in 10.0 mi NW 9.2 mph - N/A   Scattered Clouds
5:53 PM 73.0 °F 42.1 °F 33% 29.68 in 10.0 mi WNW 17.3 mph - N/A   Scattered Clouds
6:53 PM 70.0 °F 42.1 °F 36% 29.68 in 10.0 mi WNW 20.7 mph 27.6 mph N/A   Mostly Cloudy
7:53 PM 66.9 °F 41.0 °F 39% 29.70 in 10.0 mi WNW 19.6 mph 31.1 mph N/A   Mostly Cloudy
8:53 PM 64.9 °F 41.0 °F 42% 29.72 in 10.0 mi WNW 21.9 mph - N/A   Scattered Clouds
9:53 PM 63.0 °F 41.0 °F 45% 29.74 in 10.0 mi WNW 20.7 mph - N/A   Mostly Cloudy
10:53 PM 60.1 °F 41.0 °F 49% 29.77 in 10.0 mi WNW 18.4 mph - N/A   Partly Cloudy
11:53 PM 59.0 °F 41.0 °F 51% 29.79 in 10.0 mi WNW 13.8 mph - N/A   Clear